Hourly Data Report for February 28, 2003

TORONTO CITY
ONTARIO

43°40'00.000" N
79°24'00.000" W
112.50 m
6158355
71508
XTO

Download Data

Hourly Data (February 2003)
Hourly Data Report for February 28, 2003
TIME
LST
Temp Definition
°C
Dew Point Definition
°C
Rel Hum Definition
%
Precip. Amount Definition
mm

Wind Dir Definition
10's deg

Wind Spd Definition
km/h
Visibility Definition
km
Stn Press Definition
kPa
Hmdx Definition


Wind Chill Definition


Weather Definition


00:00 -5.3 -7.4 85   LegendMM LegendMM LegendMM 100.49     LegendNANA
01:00 -5.5 -7.6 85   LegendMM LegendMM LegendMM 100.49     LegendNANA
02:00 -5.5 -8.2 81   LegendMM LegendMM LegendMM 100.48     LegendNANA
03:00 -5.5 -8.6 79   LegendMM LegendMM LegendMM 100.45     LegendNANA
04:00 -6.4 -9.1 81   LegendMM LegendMM LegendMM 100.46     LegendNANA
05:00 -6.8 -10.1 77   LegendMM LegendMM LegendMM 100.46     LegendNANA
06:00 -6.7 -9.7 79   LegendMM LegendMM LegendMM 100.50     LegendNANA
07:00 -6.9 -9.7 80   LegendMM LegendMM LegendMM 100.54     LegendNANA
08:00 -5.8 -9.1 77   LegendMM LegendMM LegendMM 100.60     LegendNANA
09:00 -4.4 -8.2 75   LegendMM LegendMM LegendMM 100.63     LegendNANA
10:00 -3.1 -7.7 70   LegendMM LegendMM LegendMM 100.62     LegendNANA
11:00 -1.2 -7.2 64   LegendMM LegendMM LegendMM 100.65     LegendNANA
12:00 1.0 -6.9 56   LegendMM LegendMM LegendMM 100.64     LegendNANA
13:00 1.0 -6.9 56   LegendMM LegendMM LegendMM 100.59     LegendNANA
14:00 0.7 -6.7 58   LegendMM LegendMM LegendMM 100.57     LegendNANA
15:00 0.0 -5.5 66   LegendMM LegendMM LegendMM 100.59     LegendNANA
16:00 -0.1 -5.2 68   LegendMM LegendMM LegendMM 100.59     LegendNANA
17:00 -0.2 -4.7 72   LegendMM LegendMM LegendMM 100.61     LegendNANA
18:00 -0.8 -4.8 74   LegendMM LegendMM LegendMM 100.64     LegendNANA
19:00 -1.6 -4.7 79   LegendMM LegendMM LegendMM 100.70     LegendNANA
20:00 -1.6 -4.5 81   LegendMM LegendMM LegendMM 100.71     LegendNANA
21:00 -1.5 -4.4 81   LegendMM LegendMM LegendMM 100.71     LegendNANA
22:00 -1.3 -4.6 78   LegendMM LegendMM LegendMM 100.78     LegendNANA
23:00 -1.6 -6.1 71   LegendMM LegendMM LegendMM 100.79     LegendNANA

Notes on Data Quality.

Legend

  • E = Estimated
  • M = Missing
  • NA = Not Available*
  • [empty] = Indicates an unobserved value
Date modified: